KY0919 RCFN-ZPPP

Flight info

Callsign KY0919
Flight time N/A
Altitude 36100
Route RCFN/04 N0473F361 GAMA1A GAMMA V14 LATIS B591 HCN G581 CYRUS R200 LAPUG/K0878S1100 R200 ZUH R473 POU A599 LXI ZPPP/22R
Aircraft B738/M-ICAO/FAA

Departure

Time 2026-05-06 14:24
Airport Taitung Airport (RCFN)

Arrival

Time N/A
Airport Kunming Changshui International Airport (ZPPP)
Time Latitude Longitude Altitude Speed Heading
2026-05-06 14:14 22.75608 121.10591 88 ft 0 kts 28°
2026-05-06 14:18 22.75619 121.10596 149 ft 5 kts 12°
2026-05-06 14:19 22.75677 121.10566 149 ft 14 kts 324°
2026-05-06 14:19 22.75751 121.10480 150 ft 16 kts 309°
2026-05-06 14:19 22.75821 121.10390 151 ft 15 kts 310°
2026-05-06 14:19 22.75816 121.10290 149 ft 15 kts 226°
2026-05-06 14:20 22.75738 121.10222 149 ft 14 kts 218°
2026-05-06 14:20 22.75643 121.10140 150 ft 22 kts 218°
2026-05-06 14:20 22.75515 121.10029 151 ft 23 kts 219°
2026-05-06 14:20 22.75391 121.09923 152 ft 22 kts 218°
2026-05-06 14:21 22.75271 121.09820 153 ft 22 kts 218°
2026-05-06 14:21 22.75155 121.09718 154 ft 21 kts 219°
2026-05-06 14:21 22.75041 121.09621 155 ft 20 kts 218°
2026-05-06 14:21 22.74932 121.09525 156 ft 20 kts 218°
2026-05-06 14:22 22.74827 121.09435 157 ft 19 kts 218°
2026-05-06 14:22 22.74726 121.09368 158 ft 11 kts 181°
2026-05-06 14:22 22.74667 121.09417 158 ft 11 kts 129°
2026-05-06 14:22 22.74689 121.09479 158 ft 11 kts 38°
2026-05-06 14:23 22.74693 121.09482 158 ft 0 kts 39°
2026-05-06 14:23 22.74783 121.09560 159 ft 52 kts 39°
2026-05-06 14:23 22.75275 121.09982 153 ft 126 kts 38°
2026-05-06 14:24 22.76124 121.10715 239 ft 180 kts 38°
2026-05-06 14:24 22.77228 121.11625 539 ft 217 kts 39°
2026-05-06 14:24 22.78365 121.12751 1268 ft 216 kts 54°
2026-05-06 14:24 22.79065 121.14254 1932 ft 235 kts 76°
2026-05-06 14:25 22.79004 121.15978 2754 ft 231 kts 115°
2026-05-06 14:25 22.77947 121.17236 3523 ft 232 kts 154°
2026-05-06 14:25 22.76354 121.17490 4003 ft 238 kts 194°
2026-05-06 14:25 22.74824 121.16890 4708 ft 232 kts 197°
2026-05-06 14:26 22.73234 121.16494 5239 ft 238 kts 194°
2026-05-06 14:26 22.71633 121.16048 5857 ft 237 kts 198°
2026-05-06 14:26 22.70029 121.15564 6370 ft 242 kts 199°
2026-05-06 14:26 22.68404 121.15069 7032 ft 242 kts 199°
2026-05-06 14:27 22.66808 121.14581 7685 ft 243 kts 200°
2026-05-06 14:27 22.65151 121.14076 8372 ft 244 kts 199°
2026-05-06 14:27 22.63456 121.13774 8959 ft 255 kts 176°
2026-05-06 14:27 22.61713 121.14446 9226 ft 282 kts 152°
2026-05-06 14:28 22.59978 121.15551 9655 ft 295 kts 152°
2026-05-06 14:28 22.58200 121.16652 10211 ft 302 kts 153°
2026-05-06 14:28 22.56299 121.17786 10391 ft 322 kts 154°
2026-05-06 14:28 22.54269 121.18972 10530 ft 341 kts 154°
2026-05-06 14:29 22.52122 121.20217 10663 ft 359 kts 154°
2026-05-06 14:29 22.49861 121.21512 10777 ft 376 kts 154°
2026-05-06 14:29 22.47502 121.22860 10903 ft 390 kts 154°
2026-05-06 14:29 22.45048 121.24186 11175 ft 396 kts 162°
2026-05-06 14:30 22.42370 121.24690 11615 ft 390 kts 185°
2026-05-06 14:30 22.39733 121.24149 12153 ft 385 kts 201°
2026-05-06 14:30 22.37375 121.22819 12508 ft 384 kts 219°
2026-05-06 14:30 22.35293 121.21008 12981 ft 384 kts 221°
2026-05-06 14:31 22.33226 121.19166 13426 ft 386 kts 221°
2026-05-06 14:31 22.31134 121.17329 13787 ft 390 kts 221°
2026-05-06 14:31 22.29009 121.15492 14093 ft 393 kts 220°
2026-05-06 14:31 22.26876 121.13662 14451 ft 395 kts 220°
2026-05-06 14:32 22.24710 121.11800 14784 ft 397 kts 221°
2026-05-06 14:32 22.22548 121.09930 15124 ft 399 kts 221°
2026-05-06 14:32 22.20377 121.08051 15461 ft 401 kts 221°
2026-05-06 14:32 22.18194 121.06161 15785 ft 403 kts 221°
2026-05-06 14:33 22.16746 121.04909 15991 ft 404 kts 221°
2026-05-06 14:33 22.14538 121.03002 16946 ft 406 kts 219°
2026-05-06 14:33 22.11594 121.00461 16942 ft 403 kts 221°
2026-05-06 14:33 22.09450 120.98607 17190 ft 407 kts 221°
2026-05-06 14:34 22.07981 120.97338 17314 ft 410 kts 221°
2026-05-06 14:34 22.05784 120.95443 17584 ft 412 kts 221°
2026-05-06 14:34 22.03498 120.93492 17933 ft 413 kts 220°
2026-05-06 14:34 22.00499 120.90945 18312 ft 415 kts 221°
2026-05-06 14:35 21.98274 120.89055 18537 ft 417 kts 221°
2026-05-06 14:35 21.96704 120.87694 18690 ft 417 kts 224°
2026-05-06 14:35 21.94872 120.85300 18847 ft 416 kts 244°
2026-05-06 14:35 21.93852 120.82436 19316 ft 408 kts 256°
2026-05-06 14:36 21.93452 120.79407 19452 ft 411 kts 270°
2026-05-06 14:36 21.93721 120.76329 19584 ft 415 kts 277°
2026-05-06 14:36 21.94134 120.73268 19787 ft 417 kts 278°
2026-05-06 14:36 21.94572 120.70197 20019 ft 418 kts 278°
2026-05-06 14:37 21.95005 120.67143 20233 ft 419 kts 278°
2026-05-06 14:37 21.95446 120.63954 20448 ft 420 kts 278°
2026-05-06 14:37 21.95867 120.60834 20642 ft 422 kts 278°
2026-05-06 14:37 21.96275 120.57745 20837 ft 423 kts 277°
2026-05-06 14:38 21.96684 120.54605 21037 ft 424 kts 277°
2026-05-06 14:38 21.97092 120.51451 21222 ft 425 kts 277°
2026-05-06 14:38 21.97500 120.48288 21412 ft 426 kts 277°
2026-05-06 14:38 21.97909 120.45110 21599 ft 428 kts 277°
2026-05-06 14:39 21.98317 120.41933 21784 ft 429 kts 277°
2026-05-06 14:39 21.98727 120.38744 21951 ft 430 kts 277°
2026-05-06 14:39 21.99137 120.35545 22106 ft 432 kts 277°
2026-05-06 14:39 21.99548 120.32335 22275 ft 433 kts 277°
2026-05-06 14:40 21.99959 120.29122 22449 ft 434 kts 277°
2026-05-06 14:40 22.00371 120.25894 22606 ft 435 kts 277°
2026-05-06 14:40 22.00783 120.22662 22762 ft 436 kts 277°
2026-05-06 14:40 22.01196 120.19419 22925 ft 437 kts 277°
2026-05-06 14:41 22.01609 120.16167 23067 ft 438 kts 277°
2026-05-06 14:41 22.02023 120.12911 23217 ft 439 kts 277°
2026-05-06 14:41 22.02437 120.09642 23331 ft 441 kts 277°
2026-05-06 14:41 22.02852 120.06357 23415 ft 443 kts 277°
2026-05-06 14:42 22.03262 120.03116 23573 ft 444 kts 277°
2026-05-06 14:42 22.03674 119.99874 23712 ft 444 kts 278°
2026-05-06 14:42 22.04090 119.96607 23834 ft 445 kts 278°
2026-05-06 14:42 22.04511 119.93302 23955 ft 445 kts 278°
2026-05-06 14:43 22.04932 119.89994 24071 ft 446 kts 278°
2026-05-06 14:43 22.05353 119.86682 24188 ft 447 kts 278°
2026-05-06 14:43 22.05774 119.83360 24288 ft 448 kts 278°
2026-05-06 14:43 22.06196 119.80027 24366 ft 449 kts 278°
2026-05-06 14:44 22.06619 119.76681 24447 ft 451 kts 278°
2026-05-06 14:44 22.07041 119.73333 24569 ft 451 kts 278°
2026-05-06 14:44 22.07462 119.69989 24682 ft 451 kts 278°
2026-05-06 14:45 22.08299 119.63303 24849 ft 454 kts 278°
2026-05-06 14:45 22.08707 119.59992 24932 ft 454 kts 278°
2026-05-06 14:45 22.09120 119.56613 25019 ft 455 kts 278°
2026-05-06 14:45 22.09534 119.53229 25128 ft 456 kts 278°
2026-05-06 14:46 22.09948 119.49836 25195 ft 457 kts 278°
2026-05-06 14:46 22.10363 119.46440 25292 ft 458 kts 278°
2026-05-06 14:46 22.10778 119.43035 25397 ft 458 kts 278°
2026-05-06 14:46 22.11192 119.39635 25498 ft 458 kts 278°
2026-05-06 14:47 22.11607 119.36219 25586 ft 459 kts 278°
2026-05-06 14:47 22.12020 119.32812 25672 ft 460 kts 278°
2026-05-06 14:47 22.12435 119.29384 25759 ft 460 kts 278°